Regional Weather Roundup
Issued by NWS

Home | Current Version | Previous Version | Text Only | Print | Product List | Glossary On
Versions: 1 2 3 4 5 6 7 8 9 10 11 12 13 14 15 16 17 18 19 20 21 22 23 24 25 26 27 28 29 30 31 32 33 34 35 36 37 38 39 40 41 42 43 44 45 46 47 48 49 50
000
ASUS43 KMPX 221010
RWRMN
WEATHER ROUNDUP FOR MINNESOTA
NATIONAL WEATHER SERVICE TWIN CITIES/CHANHASSEN MN
500 AM CDT TUE MAY 22 2018


NOTE: "FAIR" INDICATES FEW OR NO CLOUDS BELOW 12,000 FEET WITH NO
SIGNIFICANT WEATHER AND/OR OBSTRUCTIONS TO VISIBILITY. N/A MEANS
CURRENT SKY AND/OR WEATHER CONDITIONS ARE NOT AVAILABLE.

MNZ060>063-068>070-221100-
   Twin Cities Metro

CITY           SKY/WX    TMP DP  RH WIND       PRES   REMARKS
TWIN CITIES    CLOUDY    59  55  87 SE5       30.01F
ST PAUL        CLOUDY    58  53  84 SE3       30.02F HAZE
CRYSTAL        CLOUDY    57  53  86 CALM      30.00F
BLAINE         MOCLDY    59  54  82 CALM      30.01F
LAKEVILLE      CLOUDY    55  55 100 E3        30.01F
EDEN PRAIRIE   CLOUDY    57  53  86 E3        30.00F
SOUTH ST PAUL  CLOUDY    58  54  86 CALM      30.01F
LAKE ELMO      MOCLDY    55  54  94 CALM      30.03S
$$
MNZ001>005-007-008-013>017-022>024-027-028-221100-
   Northwest Minnesota

CITY           SKY/WX    TMP DP  RH WIND       PRES   REMARKS
BEMIDJI        FAIR      44  42  95 CALM      30.01S
HALLOCK        FAIR      52  48  87 SE9       29.95S
ROSEAU         FAIR      48  45  87 S6        29.97S
WARROAD        FAIR      50  46  87 SW7       29.98R
THIEF RVR FALL FAIR      50  48  93 S6        29.99S
CROOKSTON      FAIR      54  52  94 S7        29.98S FOG
FOSSTON        FAIR      46  45  93 S5        30.01R
DETROIT LAKES  CLOUDY    52  48  87 CALM      30.01S
MOORHEAD       FAIR      52  50  93 CALM      30.00R FOG
PARK RAPIDS    CLOUDY    55  46  71 CALM      30.00F
MAHNOMEN       FAIR      49  46  90 SE7       30.00S
$$
MNZ006-009>011-018-025>026-221100-
   North Central Minnesota

CITY           SKY/WX    TMP DP  RH WIND       PRES   REMARKS
BAUDETTE       FAIR      44  44 100 S3        29.99S
FLAG ISLAND    FAIR      54  45  71 S5        29.95S
INTL FALLS     FAIR      39  38  96 CALM      30.00R
WASKISH        FAIR      48  45  87 CALM      30.00S
BIG FORK       FAIR      39  37  93 CALM      30.01S
LONGVILLE      CLOUDY    54  48  82 CALM      30.01S
GRAND RAPIDS   CLOUDY    53  46  77 CALM      30.04R
CRANE LAKE     FAIR      36  34  93 CALM      30.03S
ORR            FAIR      39  37  93 CALM      29.99S
COOK           FAIR      41  37  87 CALM      30.02S
WALKER         CLOUDY    50  45  85 CALM      30.01S
$$
MNZ012-019>021-037-221100-
   Northeast Minnesota

CITY           SKY/WX    TMP DP  RH WIND       PRES   REMARKS
DULUTH         CLOUDY    56  42  59 VRB5      30.01R
ELY            CLOUDY    43  39  87 CALM      30.02R
HIBBING        CLOUDY    48  44  86 CALM      30.02R
EVELETH        FAIR      52  45  76 CALM      30.03R
DULUTH HARBOR  CLOUDY    54  43  66 CALM      30.02S
TWO HARBORS    MOCLDY    55  45  67 CALM      29.99R
SILVER BAY     CLOUDY    50  43  76 CALM      29.99S
GRAND MARAIS     N/A     40  32  73 W3        30.00R
G MARAIS ARPRT FAIR      43  30  61 CALM      30.01S
$$
MNZ029>031-032-039>041-046>048-054>057-064-221100-
   West Central Minnesota

CITY           SKY/WX    TMP DP  RH WIND       PRES   REMARKS
FERGUS FALLS   FAIR      55  52  88 SE5       29.97R
WHEATON        FOG       55  55 100 E5        30.01S VSB 1/4
MORRIS         CLOUDY    57  54  88 SE6       30.00R
ALEXANDRIA     CLOUDY    57  47  69 S3        30.02R
ELBOW LAKE     CLOUDY    56  53  89 E5        30.01R
WADENA         CLOUDY    54  46  76 SE3       30.01R
GLENWOOD       FAIR      52  48  87 E3        30.01S
APPLETON       FOG       57  55  94 SE3       29.99S VSB 1/4
BENSON         CLOUDY    54  52  94 S5        30.02R
ORTONVILLE     FOG       57  55  94 SE3       29.98F VSB 1/4
MADISON        FOG       57  57 100 S5        29.99S VSB 1/4
WILLMAR        FAIR      50  48  93 CALM      30.03R
$$
MNZ033>034-036-042>043-049>051-058-059-221100-
   Central Minnesota

CITY           SKY/WX    TMP DP  RH WIND       PRES   REMARKS
ST CLOUD       CLOUDY    47  46  97 CALM      30.01S
SAUK CENTRE    PTSUNNY   51  49  95 CALM      30.02R
PAYNESVILLE    FAIR      51  50  97 CALM      30.02R
AITKIN         CLOUDY    50  46  87 CALM      30.00S
PINE RIVER     CLOUDY    52  46  82 CALM      30.04S
BRAINERD       CLOUDY    55  45  68 CALM      30.02R
STAPLES        CLOUDY    52  45  76 CALM      30.02R
LONG PRAIRIE   CLOUDY    50  48  93 CALM      30.02R
LITTLE FALLS   CLOUDY    50  50 100 CALM      30.01S
LITCHFIELD     FAIR      54  54 100 CALM      30.01S FOG
BUFFALO        FAIR      50  47  89 CALM      30.02S
MAPLE LAKE     FAIR      51  51  99 CALM      30.02S
HUTCHINSON       N/A     53  53  99 CALM      30.02S FOG
$$
MNZ037-044-045-052-053-221100-
   East Central Minnesota

CITY           SKY/WX    TMP DP  RH WIND       PRES   REMARKS
PRINCETON      CLOUDY    57  54  88 CALM      30.02S
MORA           CLOUDY    50  46  87 CALM      30.04R
CAMBRIDGE      CLOUDY    59  50  72 CALM      30.02S
RUSH CITY      CLOUDY    57  53  86 CALM      30.02S
MOOSE LAKE     CLOUDY    52  43  71 CALM      30.00F
HINCKLEY       CLOUDY    54  52  94 CALM      30.02S
CLOQUET        CLOUDY    54  41  62 CALM      30.02R
MCGREGOR       CLOUDY    52  48  87 CALM      30.02R
$$
MNZ071>073-080-081-089-090-097-098-221100-
   Southwest Minnesota

CITY           SKY/WX    TMP DP  RH WIND       PRES   REMARKS
MONTEVIDEO     FOG       57  57 100 SW3       30.01R VSB 1/4
GRANITE FALLS  FOG       58  58  98 SE5       30.02S VSB 1/4
CANBY          FOG       51  50  98 CALM      30.00S VSB 1/4
MARSHALL       FOG       54  54 100 SE3       30.00F VSB 1/4
REDWOOD FALLS  FOG       56  56 100 S3        30.00S VSB<1/4
OLIVIA         MOCLDY    54  54 100 CALM      30.00S
PIPESTONE      FOG       54  54 100 SE7       30.00S VSB 1/4
WINDOM         HAZE      55  43  62 CALM      30.01S VSB<1/4
WORTHINGTON    FOG       55  55 100 S7        30.02S VSB 1/4
JACKSON        FOG       55  55 100 S3        30.03R VSB 1/4
TRACY          FOG       56  56 100 SW9       30.00S VSB 1
SLAYTON        FOG       53  53 100 CALM      30.02S VSB 1/4
$$
MNZ065>067-074>077-082>085-091>093-221100-
   South Central Minnesota

CITY           SKY/WX    TMP DP  RH WIND       PRES   REMARKS
MANKATO        FAIR      55  54  96 SE8       30.00F FOG
NEW ULM        FOG       57  57 100 S3        30.01R VSB<1/4
ST JAMES       FOG       57  57 100 CALM      30.02S VSB 1/2
FAIRMONT       FOG       56  56 100 CALM      30.02S VSB 1/4
GLENCOE        FAIR      55  56 100 E3        30.00S
FARIBAULT      CLOUDY    55  54  94 CALM      30.01F
OWATONNA       MOCLDY    55  54  94 CALM      30.01S FOG
WASECA         CLOUDY    55  54  94 SE5       30.02F
ALBERT LEA     CLOUDY    55  55 100 CALM      30.02S FOG
$$
MNZ078>079-086>088-094>096-221100-
   Southeast Minnesota

CITY           SKY/WX    TMP DP  RH WIND       PRES   REMARKS
ROCHESTER      CLOUDY    54  54 100 NW3       30.02S FOG
RED WING       CLOUDY    57  54  88 CALM      30.01S
STANTON        CLOUDY    57  54  89 E5        30.00F
DODGE CENTER   FOG       54  52  94 CALM      30.02S VSB 1/4
WINONA         CLOUDY    55  55 100 CALM      30.00S FOG
AUSTIN         CLOUDY    55  54  94 CALM      30.01F FOG
PRESTON        CLOUDY    54  53  96 CALM      30.02F FOG
$$
ABBREVIATIONS USED IN REMARKS
   TC - TEMPERATURES IN CELSIUS
  WCI - WIND CHILL INDEX
   HX - HEAT INDEX
  VSB - VISIBILITY
$$



USA.gov is the U.S. government's official web portal to all federal, state and local government web resources and services.